TimeMST,TemperatureF,Dew PointF,Humidity,Sea Level PressureIn,VisibilityMPH,Wind Direction,Wind SpeedMPH,Gust SpeedMPH,PrecipitationIn,Events,Conditions,WindDirDegrees,DateUTC
12:15 AM,37.2,17.2,44,30.36,10.0,Calm,Calm,-,N/A,,Clear,0,2012-11-23 07:15:00
12:35 AM,35.2,17.2,48,30.36,10.0,Calm,Calm,-,N/A,,Clear,0,2012-11-23 07:35:00
12:55 AM,32.0,16.5,53,30.38,10.0,South,6.9,-,N/A,,Clear,190,2012-11-23 07:55:00
1:15 AM,38.1,17.4,43,30.38,10.0,SW,9.2,-,N/A,,Clear,230,2012-11-23 08:15:00
1:35 AM,39.6,17.4,41,30.38,10.0,West,11.5,-,N/A,,Clear,260,2012-11-23 08:35:00
1:55 AM,37.6,18.1,45,30.39,10.0,West,12.7,-,N/A,,Clear,260,2012-11-23 08:55:00
2:15 AM,39.6,18.0,42,30.39,10.0,West,8.1,11.5,N/A,,Clear,260,2012-11-23 09:15:00
2:35 AM,40.1,18.5,42,30.39,10.0,West,11.5,-,N/A,,Clear,270,2012-11-23 09:35:00
2:55 AM,39.6,19.9,45,30.39,10.0,West,12.7,-,N/A,,Clear,260,2012-11-23 09:55:00
3:15 AM,38.7,20.8,49,30.40,10.0,West,11.5,-,N/A,,Clear,260,2012-11-23 10:15:00
3:35 AM,36.7,22.3,56,30.40,10.0,WSW,8.1,-,N/A,,Clear,250,2012-11-23 10:35:00
3:55 AM,34.0,21.7,61,30.41,10.0,WNW,3.5,-,N/A,,Clear,300,2012-11-23 10:55:00
4:15 AM,34.2,21.7,60,30.41,10.0,Calm,Calm,-,N/A,,Clear,0,2012-11-23 11:15:00
4:35 AM,33.8,21.9,62,30.41,10.0,North,3.5,-,N/A,,Clear,10,2012-11-23 11:35:00
4:55 AM,30.6,19.6,64,30.43,10.0,NE,3.5,-,N/A,,Clear,40,2012-11-23 11:55:00
5:15 AM,31.1,19.9,63,30.43,10.0,NNE,4.6,-,N/A,,Clear,30,2012-11-23 12:15:00
5:35 AM,31.5,20.1,63,30.44,10.0,NE,5.8,-,N/A,,Clear,50,2012-11-23 12:35:00
5:55 AM,32.5,21.9,65,30.45,10.0,North,4.6,-,N/A,,Clear,350,2012-11-23 12:55:00
6:15 AM,30.2,20.3,67,30.46,10.0,Calm,Calm,-,N/A,,Clear,0,2012-11-23 13:15:00
6:35 AM,30.9,20.7,66,30.47,10.0,WNW,6.9,-,N/A,,Clear,290,2012-11-23 13:35:00
6:55 AM,31.1,20.5,65,30.48,10.0,WNW,5.8,-,N/A,,Clear,300,2012-11-23 13:55:00
7:15 AM,30.0,19.8,66,30.48,10.0,WNW,3.5,-,N/A,,Clear,300,2012-11-23 14:15:00
7:35 AM,31.8,20.3,62,30.50,10.0,WNW,3.5,-,N/A,,Clear,300,2012-11-23 14:35:00
7:55 AM,36.0,21.9,57,30.51,10.0,North,3.5,-,N/A,,Clear,350,2012-11-23 14:55:00
8:15 AM,38.5,22.1,52,30.52,10.0,NNW,3.5,-,N/A,,Clear,340,2012-11-23 15:15:00
8:35 AM,40.5,22.8,49,30.53,10.0,NW,8.1,-,N/A,,Clear,320,2012-11-23 15:35:00
8:55 AM,42.6,24.8,49,30.53,10.0,NW,11.5,-,N/A,,Clear,310,2012-11-23 15:55:00
9:15 AM,44.2,24.4,46,30.53,10.0,WNW,9.2,-,N/A,,Clear,290,2012-11-23 16:15:00
9:35 AM,46.4,24.4,42,30.54,10.0,WNW,9.2,-,N/A,,Clear,300,2012-11-23 16:35:00
9:55 AM,48.0,24.4,40,30.54,10.0,WNW,9.2,-,N/A,,Clear,290,2012-11-23 16:55:00
10:15 AM,49.6,24.6,38,30.54,10.0,WNW,9.2,-,N/A,,Clear,290,2012-11-23 17:15:00
10:35 AM,50.2,24.6,37,30.53,10.0,WNW,9.2,-,N/A,,Clear,300,2012-11-23 17:35:00
10:55 AM,51.4,24.6,35,30.53,10.0,West,6.9,-,N/A,,Clear,260,2012-11-23 17:55:00
11:15 AM,51.1,24.3,35,30.52,10.0,West,4.6,-,N/A,,Clear,270,2012-11-23 18:15:00
11:35 AM,52.0,24.3,34,30.51,10.0,WNW,4.6,-,N/A,,Clear,300,2012-11-23 18:35:00
11:55 AM,52.7,24.4,33,30.50,10.0,SSW,3.5,-,N/A,,Clear,200,2012-11-23 18:55:00
12:15 PM,53.4,24.6,33,30.49,10.0,Calm,Calm,-,N/A,,Clear,0,2012-11-23 19:15:00
12:35 PM,54.0,24.3,32,30.49,10.0,Calm,Calm,-,N/A,,Clear,0,2012-11-23 19:35:00
12:55 PM,54.5,24.3,31,30.48,10.0,Calm,Calm,-,N/A,,Clear,0,2012-11-23 19:55:00
1:15 PM,54.7,24.3,31,30.47,10.0,East,4.6,-,N/A,,Clear,90,2012-11-23 20:15:00
1:35 PM,54.9,24.1,30,30.46,10.0,Calm,Calm,-,N/A,,Clear,0,2012-11-23 20:35:00
1:55 PM,55.8,24.1,29,30.45,10.0,Calm,Calm,-,N/A,,Clear,0,2012-11-23 20:55:00
2:15 PM,54.9,23.9,30,30.44,10.0,Calm,Calm,-,N/A,,Clear,0,2012-11-23 21:15:00
2:35 PM,55.9,23.9,29,30.43,10.0,Calm,Calm,-,N/A,,Clear,0,2012-11-23 21:35:00
2:55 PM,56.5,23.9,28,30.42,10.0,Calm,Calm,-,N/A,,Clear,0,2012-11-23 21:55:00
3:15 PM,56.7,23.5,28,30.42,10.0,SE,4.6,-,N/A,,Clear,130,2012-11-23 22:15:00
3:35 PM,56.7,23.5,28,30.42,10.0,Calm,Calm,-,N/A,,Clear,0,2012-11-23 22:35:00
3:55 PM,56.1,23.0,28,30.41,10.0,Calm,Calm,-,N/A,,Clear,0,2012-11-23 22:55:00
4:15 PM,56.1,23.0,28,30.42,10.0,Calm,Calm,-,N/A,,Clear,0,2012-11-23 23:15:00
4:35 PM,55.4,22.8,28,30.41,10.0,Calm,Calm,-,N/A,,Clear,0,2012-11-23 23:35:00
4:55 PM,53.1,22.3,30,30.41,10.0,Calm,Calm,-,N/A,,Clear,0,2012-11-23 23:55:00
5:15 PM,52.5,22.6,31,30.41,10.0,Calm,Calm,-,N/A,,Clear,0,2012-11-24 00:15:00
5:35 PM,49.8,21.6,33,30.42,10.0,NE,4.6,-,N/A,,Clear,40,2012-11-24 00:35:00
5:55 PM,47.7,21.4,35,30.42,10.0,North,4.6,-,N/A,,Clear,10,2012-11-24 00:55:00
6:15 PM,44.4,19.6,37,30.42,10.0,North,4.6,-,N/A,,Clear,10,2012-11-24 01:15:00
6:35 PM,40.1,18.3,42,30.42,10.0,North,6.9,-,N/A,,Clear,360,2012-11-24 01:35:00
6:55 PM,40.3,18.0,41,30.42,10.0,North,3.5,-,N/A,,Clear,360,2012-11-24 01:55:00
7:15 PM,41.0,19.8,43,30.42,10.0,North,3.5,-,N/A,,Clear,10,2012-11-24 02:15:00
7:35 PM,40.8,18.9,41,30.42,10.0,NNE,3.5,-,N/A,,Clear,20,2012-11-24 02:35:00
7:55 PM,39.7,19.2,44,30.42,10.0,North,3.5,-,N/A,,Clear,10,2012-11-24 02:55:00
8:15 PM,40.1,19.8,44,30.42,10.0,Calm,Calm,-,N/A,,Clear,0,2012-11-24 03:15:00
8:35 PM,38.1,18.7,46,30.42,10.0,NE,4.6,-,N/A,,Clear,50,2012-11-24 03:35:00
8:55 PM,35.1,16.5,47,30.42,10.0,Calm,Calm,-,N/A,,Clear,0,2012-11-24 03:55:00
9:15 PM,35.4,18.5,50,30.42,10.0,Calm,Calm,-,N/A,,Clear,0,2012-11-24 04:15:00
9:35 PM,34.0,16.7,49,30.42,10.0,Calm,Calm,-,N/A,,Clear,0,2012-11-24 04:35:00
9:55 PM,34.5,16.5,48,30.42,10.0,Calm,Calm,-,N/A,,Clear,0,2012-11-24 04:55:00
10:15 PM,35.4,16.7,47,30.42,10.0,Calm,Calm,-,N/A,,Clear,0,2012-11-24 05:15:00
10:35 PM,35.2,17.6,49,30.42,10.0,Calm,Calm,-,N/A,,Clear,0,2012-11-24 05:35:00
10:55 PM,32.4,12.4,44,30.42,10.0,Calm,Calm,-,N/A,,Clear,0,2012-11-24 05:55:00
11:15 PM,32.2,17.2,54,30.42,10.0,NW,6.9,-,N/A,,Clear,310,2012-11-24 06:15:00
11:35 PM,31.5,16.2,53,30.41,10.0,NNE,3.5,-,N/A,,Clear,20,2012-11-24 06:35:00
11:55 PM,31.1,16.7,55,30.41,10.0,NNW,3.5,-,N/A,,Clear,330,2012-11-24 06:55:00